Terminal Aerodrome Forecast
Issued by NWS

Home | Current Version | Previous Version | Text Only | Print | Product List | Glossary On
Versions: 1 2 3 4 5 6 7 8 9 10 11 12 13 14 15
000
FTUS46 KSTO 242300
TAFRBL
TAF
KRBL 242332Z 2500/2524 15011KT P6SM VCSH BKN050 BKN100
     FM250500 15008KT 6SM -SHRA OVC040
      TEMPO 2506/2510 3SM -SHRA BKN015 OVC030
     FM251700 16009KT P6SM SCT100=

USA.gov is the U.S. government's official web portal to all federal, state and local government web resources and services.